Other Surface Observations
Issued by NWS

Home | Current Version | Previous Version | Text Only | Print | Product List | Glossary On
Versions: 1 2 3 4 5 6 7 8 9 10 11 12 13 14 15 16 17 18 19 20 21 22 23 24 25 26 27 28 29 30 31 32 33 34 35 36 37 38 39 40 41 42 43 44 45 46 47 48 49 50
000
SXUS52 KTAE 180519
OSOTAE
OSOTAE
North Florida/South Alabama/Southwest Georgia Weather Roundup
National Weather Service Tallahassee Florida
100 AM EDT FRI AUG 18 2017

Note: "fair" indicates few or no clouds below 12,000 feet with no
significant weather and/or obstructions to visibility.

!FLZ017-115-028-034-025-180600
...North Florida...

CITY           SKY/WX    TMP DP  RH WIND       PRES   REMARKS
TALLAHASSEE    CLOUDY    81  77  88 CALM      30.02F
APALACHICOLA   PTCLDY    82  80  94 CALM      30.03S HX  94
PERRY          CLEAR     80  78  93 CALM      30.03F
CROSS CITY     PTCLDY    80  78  92 CALM      30.08F
JACKSONVILLE   PTCLDY    78  77  96 SW7       30.02F
$$

!FLZ112-006-005-002-011-180600
...Florida Panhandle...

CITY           SKY/WX    TMP DP  RH WIND       PRES   REMARKS
MARIANNA       CLEAR     80  77  90 W5        30.01F
BONIFAY        NOT AVBL
PANAMA CITY NW FAIR      80  77  90 CALM      30.02S
TYNDALL AFB    PTCLDY    84  78  82 W5        30.02F HX  96
TYND DRONE APT FAIR      84  79  84 CALM      30.02F HX  96
DE FUNIAK SPR  FAIR      77  76  95 CALM      30.04F
EGLIN AFB      CLEAR     83  78  84 W3        30.02F HX  92
DESTIN         CLEAR     88  78  72 W5        30.03S HX 101
HURLBURT       CLEAR     83  76  80 CALM      30.02S HX  92
CRESTVIEW      CLEAR     77  75  93 CALM      30.05S
PENSACOLA      CLEAR     84  77  79 W6        30.03S HX  94
$$

!ALZ063-066-180600
...South Alabama...

CITY           SKY/WX    TMP DP  RH WIND       PRES   REMARKS
DOTHAN         CLEAR     78  76  93 SW5       30.06F
OZARK CAIRNS   CLEAR     77  74  91 SW5       30.02F
FT RUCKER HELI CLEAR     76  75  98 CALM      30.03S
RUCKER HELI 3  FAIR      79  76  91 SW5       30.02F
RUCKER HELI 2  FAIR      76  75  96 CALM      30.02S
FLORALA APT    NOT AVBL
ANDALUSIA      CLEAR     79  75  87 CALM      30.03S
TROY           CLEAR     74  74 100 CALM      30.03S
EUFALA         FAIR      75  74  96 CALM      30.01F
MOBILE         CLEAR     81  77  88 SW5       30.06R
$$

!GAZ120>161-180600
...Southwest and South Central Georgia...

CITY           SKY/WX    TMP DP  RH WIND       PRES   REMARKS
THOMASVILLE    FAIR      81  81 100 CALM      30.03F HX  91
BAINBRIDGE     CLEAR     81  81 100 CALM      30.02S HX  91
MOODY AFB      PTCLDY    79  76  89 CALM      30.00F
VALDOSTA       PTCLDY    79  77  94 S6        30.02F
MOULTRIE       CLOUDY    81  77  89 CALM      30.03S
BLAKELY        CLEAR     79  75  89 CALM      30.02F
ALBANY         CLEAR     80  76  87 CALM      30.02F
TIFTON         FAIR      78  78 100 CALM      30.02S
FITZGERALD     FAIR      77  77 100 CALM      30.04S
CORDELE        FAIR      82  76  81 CALM      30.02F HX  90
AMERICUS       FAIR      77  77 100 CALM      30.03F
HOMERVILLE     FAIR      79  75  89 S5        30.02F
$$

!GMZ750-755-770-775-180600
...Coastal and Buoy Obs...

STATION/POSITION TIME  TEMP    WIND        PRES    VSBY  WAVE
                       AIR SEA DIR/SP/G                  HT/PER
                 (UTC) (F)     (DEG/KT/KT) (MB)    (MI)  (FT/S)
KEATON BEACH     0500   87     280/  8/ 10 1016.2F
CEDAR KEY        0500   86     270/  6/  7 1017.5F
C TOWER          0500   85                 1017.5F
APALACHICOLA BUO 0450   85 87  270/  6/  8 1017.3F         1
PANAMA CITY BUOY 0450   86 87  270/  4/  6 1017.2F         1/ 8
MOBILE BUOY      0500   86 88  210/  8/ 10 1017.8
ORANGE BCH AL BU 0450   86 86  240/ 10/ 12 1017.0R         1/ 2
$$




USA.gov is the U.S. government's official web portal to all federal, state and local government web resources and services.